Topeka, KS

6:52 AM CDT on June 25, 2017 (GMT -0500)
Billard Municipal

Weather History for KTOP - February, 2012

Change the Weather History Date:

Wednesday, February 29, 2012

  Actual Average Record
Temperature  
Mean Temperature 47 °F 39 °F  
Max Temperature 58 °F 50 °F 84 °F (1972)
Min Temperature 36 °F 28 °F 7 °F (1960)
Degree Days  
Heating Degree Days 18 26  
Month to date heating degree days 720 882  
Since 1 July heating degree days 3382 3993  
Cooling Degree Days 0 0  
Month to date cooling degree days 0 0  
Year to date cooling degree days 0 0  
Moisture  
Dew Point 29 °F    
Average Humidity 55    
Maximum Humidity 79    
Minimum Humidity 30    
Precipitation  
Precipitation 0.00 in 0.05 in 0.54 in (2004)
Month to date precipitation 2.72 1.32  
Year to date precipitation 2.74 2.18  
Snow  
Snow 0.00 in 0.10 in 1.20 in (1980)
Month to date snowfall 1.8 4.5  
Year to date snowfall 1.9 9.4  
Since 1 July snowfall 2.0 15.9  
Snow Depth 0.00 in    
Sea Level Pressure  
Sea Level Pressure 29.79 in    
Wind  
Wind Speed 14 mph (West)    
Max Wind Speed 28 mph    
Max Gust Speed 39 mph    
Visibility 10 miles    
Events      
T = Trace of Precipitation, MM = Missing Value Source: NWS Daily Summary

Daily Weather History Graph

Daily Weather History Graph

Search for Another Location

Airport or City:

Trip Planner

Search our weather history database for the weather conditions in past years. The results will help you decide how hot, cold, wet, or windy it might be!

Date:

Astronomy

Feb. 29, 2012 Rise Set
Actual Time 6:55 AM CST 6:14 PM CST
Civil Twilight 6:28 AM CST 6:41 PM CST
Nautical Twilight 5:58 AM CST 7:12 PM CST
Astronomical Twilight 5:27 AM CST 7:43 PM CST
Moon 10:50 AM CST (2/29) 12:58 AM CST (2/29)
Length of Visible Light 12h 12m
Length of Day
11h 18m
Waxing Crescent, 47% of the Moon is Illuminated
Feb 29
Waxing Crescent
Feb 29
First Quarter
Mar 8
Full
Mar 14
Last Quarter
Mar 22
New

Hourly Weather History & Observations

Time (CST) Temp. Windchill Dew Point Humidity Pressure Visibility Wind Dir Wind Speed Gust Speed Precip Events Conditions
12:53 AM 54.0 °F - 39.0 °F 57% 29.59 in 10.0 mi West 16.1 mph 26.5 mph N/A   Clear
1:53 AM 53.1 °F - 35.1 °F 50% 29.63 in 10.0 mi West 21.9 mph 29.9 mph N/A   Clear
2:53 AM 48.9 °F - 34.0 °F 56% 29.66 in 10.0 mi West 10.4 mph 20.7 mph N/A   Clear
3:53 AM 46.9 °F - 30.9 °F 54% 29.68 in 10.0 mi West 16.1 mph 24.2 mph N/A   Clear
4:53 AM 46.0 °F 38.3 °F 28.9 °F 51% 29.70 in 10.0 mi West 20.7 mph 28.8 mph N/A   Clear
5:53 AM 44.1 °F 38.1 °F 28.0 °F 53% 29.71 in 10.0 mi West 11.5 mph 24.2 mph N/A   Clear
6:53 AM 43.0 °F 35.1 °F 27.0 °F 53% 29.74 in 10.0 mi West 17.3 mph 24.2 mph N/A   Clear
7:53 AM 42.1 °F 36.1 °F 28.0 °F 58% 29.76 in 10.0 mi West 10.4 mph 18.4 mph N/A   Clear
8:53 AM 44.1 °F 36.2 °F 28.0 °F 53% 29.79 in 10.0 mi West 18.4 mph 26.5 mph N/A   Clear
9:53 AM 46.0 °F 37.6 °F 27.0 °F 47% 29.80 in 10.0 mi West 24.2 mph 33.4 mph N/A   Clear
10:53 AM 48.0 °F - 27.0 °F 44% 29.81 in 10.0 mi WNW 19.6 mph 32.2 mph N/A   Clear
11:53 AM 51.1 °F - 28.0 °F 41% 29.81 in 10.0 mi WNW 16.1 mph 27.6 mph N/A   Clear
12:53 PM 53.1 °F - 28.0 °F 38% 29.81 in 10.0 mi West 19.6 mph 34.5 mph N/A   Clear
1:53 PM 55.0 °F - 28.0 °F 35% 29.79 in 10.0 mi West 21.9 mph 33.4 mph N/A   Clear
2:53 PM 55.9 °F - 28.0 °F 34% 29.81 in 10.0 mi West 17.3 mph 31.1 mph N/A   Clear
3:53 PM 57.0 °F - 28.0 °F 33% 29.83 in 10.0 mi West 15.0 mph 28.8 mph N/A   Clear
4:53 PM 57.0 °F - 27.0 °F 32% 29.83 in 10.0 mi West 16.1 mph 25.3 mph N/A   Clear
5:53 PM 54.0 °F - 28.0 °F 37% 29.85 in 10.0 mi WNW 11.5 mph - N/A   Clear
6:53 PM 51.1 °F - 28.0 °F 41% 29.87 in 10.0 mi West 6.9 mph - N/A   Clear
7:53 PM 48.9 °F - 28.0 °F 44% 29.88 in 10.0 mi WSW 3.5 mph - N/A   Clear
8:53 PM 44.1 °F 42.5 °F 30.0 °F 58% 29.89 in 10.0 mi WNW 3.5 mph - N/A   Clear
9:53 PM 39.0 °F - 30.0 °F 70% 29.91 in 10.0 mi Calm Calm - N/A   Clear
10:53 PM 39.0 °F - 33.1 °F 79% 29.90 in 10.0 mi Calm Calm - N/A   Clear
11:53 PM 37.0 °F 32.4 °F 30.0 °F 76% 29.91 in 10.0 mi SSW 5.8 mph - N/A   Clear